{"data":{"norad_id":58272,"epoch":"2026-05-25T05:31:17.024160Z","epoch_age_seconds":62058,"freshness":"FRESH","line1":"1 58272U 23174S   26145.23005815  .00575390  15230-3  10303-2 0  9995","line2":"2 58272  97.3749 244.0786 0009046 243.2497 116.7857 16.01666589142736","mean_motion":16.01666589,"eccentricity":0.0009046,"inclination_deg":97.3749,"raan_deg":244.0786,"arg_perigee_deg":243.2497,"mean_anomaly_deg":116.7857,"bstar":0.0010303,"rev_number":14273,"period_min":89.906351914293,"perigee_km":263.78936584235,"apogee_km":275.81681905761,"semimajor_km":6647.94009245,"source":"CELESTRAK","updated_at":"2026-05-25T13:38:00.641291Z"}}